| time (UTC) | temp F | wind direction | speed knots | gust knots | rain 1hr in | rain 24hr in | rain mn in | humidity % | barometer mb |
| 20260507152959 | 65 | 0.0 | 0.0 | 0.00 | 0.00 | 0.00 | 57 | ||
| 20260507152458 | 65 | 0.0 | 0.0 | 0.00 | 0.00 | 0.00 | 57 | ||
| 20260507151457 | 65 | 0.0 | 0.0 | 0.00 | 0.00 | 0.00 | 55 | ||
| 20260507150958 | 65 | 0.0 | 0.0 | 0.00 | 0.00 | 0.00 | 54 | ||
| 20260507150456 | 65 | 0.0 | 0.0 | 0.00 | 0.00 | 0.00 | 52 | ||
| 20260507145456 | 64 | 0.0 | 0.0 | 0.00 | 0.00 | 0.00 | 51 | ||
| 20260507144955 | 65 | 0.0 | 0.0 | 0.00 | 0.00 | 0.00 | 55 | ||
| 20260507144455 | 64 | 0.0 | 0.0 | 0.00 | 0.00 | 0.00 | 54 | ||
| 20260507143955 | 64 | 0.0 | 0.0 | 0.00 | 0.00 | 0.00 | 56 | ||
| 20260507142954 | 64 | 0.0 | 0.0 | 0.00 | 0.00 | 0.00 | 55 | ||
| 20260507142453 | 64 | 0.0 | 0.0 | 0.00 | 0.00 | 0.00 | 56 | ||
| 20260507141953 | 64 | 0.0 | 0.0 | 0.00 | 0.00 | 0.00 | 55 | ||
| 20260507140452 | 65 | 0.0 | 0.0 | 0.00 | 0.00 | 0.00 | 54 | ||
| 20260507135951 | 65 | 0.0 | 0.0 | 0.00 | 0.00 | 0.00 | 55 | ||
| 20260507134950 | 64 | 0.0 | 0.0 | 0.00 | 0.00 | 0.00 | 54 | ||
| 20260507134450 | 65 | 0.0 | 0.0 | 0.00 | 0.00 | 0.00 | 52 | ||
| 20260507133949 | 66 | 0.0 | 0.0 | 0.00 | 0.00 | 0.00 | 52 | ||
| 20260507133449 | 68 | 0.0 | 0.0 | 0.00 | 0.00 | 0.00 | 50 | ||
| 20260507131949 | 67 | 0.0 | 0.0 | 0.00 | 0.00 | 0.00 | 55 | ||
| 20260507131448 | 66 | 0.0 | 0.0 | 0.00 | 0.00 | 0.00 | 55 | ||
| 20260507130948 | 64 | 0.0 | 0.0 | 0.00 | 0.00 | 0.00 | 60 | ||
| 20260507130447 | 63 | 0.0 | 0.0 | 0.00 | 0.00 | 0.00 | 58 | ||
| 20260507125946 | 64 | 0.0 | 0.0 | 0.00 | 0.00 | 0.00 | 57 | ||
| 20260507125446 | 66 | 0.0 | 0.0 | 0.00 | 0.00 | 0.00 | 54 | ||
| 20260507124946 | 68 | 0.0 | 0.0 | 0.00 | 0.00 | 0.00 | 52 | ||
| 20260507124445 | 68 | 0.0 | 0.0 | 0.00 | 0.00 | 0.00 | 53 | ||
| 20260507123945 | 66 | 0.0 | 0.0 | 0.00 | 0.00 | 0.00 | 53 | ||
| 20260507123444 | 66 | 0.0 | 0.0 | 0.00 | 0.00 | 0.00 | 54 | ||
| 20260507122944 | 66 | 0.0 | 0.0 | 0.00 | 0.00 | 0.00 | 57 | ||
| 20260507122444 | 65 | 0.0 | 0.0 | 0.00 | 0.00 | 0.00 | 56 | ||
| 20260507121943 | 65 | 0.0 | 0.0 | 0.00 | 0.00 | 0.00 | 58 | ||
| 20260507121443 | 65 | 0.0 | 0.0 | 0.00 | 0.00 | 0.00 | 60 | ||
| 20260507120442 | 64 | 0.0 | 0.0 | 0.00 | 0.00 | 0.00 | 58 | ||
| 20260507115942 | 66 | 0.0 | 0.0 | 0.00 | 0.00 | 0.00 | 56 | ||
| 20260507115441 | 64 | 0.0 | 0.0 | 0.00 | 0.00 | 0.00 | 59 | ||
| 20260507114941 | 64 | 0.0 | 0.0 | 0.00 | 0.00 | 0.00 | 58 | ||
| 20260507114440 | 64 | 0.0 | 0.0 | 0.00 | 0.00 | 0.00 | 56 | ||
| 20260507113940 | 66 | 0.0 | 0.0 | 0.00 | 0.00 | 0.00 | 54 | ||
| 20260507113439 | 65 | 0.0 | 0.0 | 0.00 | 0.00 | 0.00 | 55 | ||
| 20260507112939 | 66 | 0.0 | 0.0 | 0.00 | 0.00 | 0.00 | 53 | ||
| 20260507111938 | 66 | 0.0 | 0.0 | 0.00 | 0.00 | 0.00 | 56 | ||
| 20260507111438 | 66 | 0.0 | 0.0 | 0.00 | 0.00 | 0.00 | 56 | ||
| 20260507110938 | 65 | 0.0 | 0.0 | 0.00 | 0.00 | 0.00 | 55 | ||
| 20260507110436 | 65 | 0.0 | 0.0 | 0.00 | 0.00 | 0.00 | 55 | ||
| 20260507105937 | 65 | 0.0 | 0.0 | 0.00 | 0.00 | 0.00 | 59 | ||
| 20260507105436 | 65 | 0.0 | 0.0 | 0.00 | 0.00 | 0.00 | 60 | ||
| 20260507104936 | 61 | 0.0 | 0.0 | 0.00 | 0.00 | 0.00 | 63 | ||
| 20260507104435 | 61 | 0.0 | 0.0 | 0.00 | 0.00 | 0.00 | 59 | ||
| 20260507103935 | 61 | 0.0 | 0.0 | 0.00 | 0.00 | 0.00 | 62 | ||
| 20260507102934 | 61 | 0.0 | 0.0 | 0.00 | 0.00 | 0.00 | 60 | ||
| 20260507102433 | 61 | 0.0 | 0.0 | 0.00 | 0.00 | 0.00 | 62 | ||
| 20260507101933 | 60 | 0.0 | 0.0 | 0.00 | 0.00 | 0.00 | 65 | ||
| 20260507101433 | 60 | 0.0 | 0.0 | 0.00 | 0.00 | 0.00 | 66 | ||
| 20260507100933 | 60 | 0.0 | 0.0 | 0.00 | 0.00 | 0.00 | 67 | ||
| 20260507100432 | 59 | 0.0 | 0.0 | 0.00 | 0.00 | 0.00 | 68 | ||
| 20260507095932 | 59 | 0.0 | 0.0 | 0.00 | 0.00 | 0.00 | 66 | ||
| 20260507095431 | 60 | 0.0 | 0.0 | 0.00 | 0.00 | 0.00 | 67 | ||
| 20260507094931 | 59 | 0.0 | 0.0 | 0.00 | 0.00 | 0.00 | 66 | ||
| 20260507094431 | 60 | 0.0 | 0.0 | 0.00 | 0.00 | 0.00 | 66 | ||
| 20260507093930 | 61 | 0.0 | 0.0 | 0.00 | 0.00 | 0.00 | 68 | ||
| 20260507093430 | 58 | 0.0 | 0.0 | 0.00 | 0.00 | 0.00 | 71 | ||
| 20260507092429 | 56 | 0.0 | 0.0 | 0.00 | 0.00 | 0.00 | 72 | ||
| 20260507091928 | 56 | 0.0 | 0.0 | 0.00 | 0.00 | 0.00 | 71 | ||
| 20260507090928 | 57 | 0.0 | 0.0 | 0.00 | 0.00 | 0.00 | 73 | ||
| 20260507090427 | 58 | 0.0 | 0.0 | 0.00 | 0.00 | 0.00 | 71 | ||
| 20260507085927 | 58 | 0.0 | 0.0 | 0.00 | 0.00 | 0.00 | 70 | ||
| 20260507085427 | 57 | 0.0 | 0.0 | 0.00 | 0.00 | 0.00 | 71 | ||
| 20260507084926 | 59 | 0.0 | 0.0 | 0.00 | 0.00 | 0.00 | 69 | ||
| 20260507084426 | 58 | 0.0 | 0.0 | 0.00 | 0.00 | 0.00 | 69 | ||
| 20260507083926 | 58 | 0.0 | 0.0 | 0.00 | 0.00 | 0.00 | 70 | ||
| 20260507083425 | 56 | 0.0 | 0.0 | 0.00 | 0.00 | 0.00 | 73 | ||
| 20260507082925 | 56 | 0.0 | 0.0 | 0.00 | 0.00 | 0.00 | 72 | ||
| 20260507082424 | 57 | 0.0 | 0.0 | 0.00 | 0.00 | 0.00 | 76 | ||
| 20260507081923 | 57 | 0.0 | 0.0 | 0.00 | 0.00 | 0.00 | 76 | ||
| 20260507081423 | 57 | 0.0 | 0.0 | 0.00 | 0.00 | 0.00 | 74 | ||
| 20260507080924 | 56 | 0.0 | 0.0 | 0.00 | 0.00 | 0.00 | 78 | ||
| 20260507080422 | 55 | 0.0 | 0.0 | 0.00 | 0.00 | 0.00 | 77 | ||
| 20260507075922 | 55 | 0.0 | 0.0 | 0.00 | 0.00 | 0.00 | 78 | ||
| 20260507075422 | 55 | 0.0 | 0.0 | 0.00 | 0.00 | 0.00 | 76 | ||
| 20260507074921 | 55 | 0.0 | 0.0 | 0.00 | 0.00 | 0.00 | 80 | ||
| 20260507074421 | 55 | 0.0 | 0.0 | 0.00 | 0.00 | 0.00 | 80 | ||
| 20260507073921 | 54 | 0.0 | 0.0 | 0.00 | 0.00 | 0.00 | 80 | ||
| 20260507073420 | 54 | 0.0 | 0.0 | 0.00 | 0.00 | 0.00 | 84 | ||
| 20260507072919 | 54 | 0.0 | 0.0 | 0.00 | 0.00 | 0.00 | 85 | ||
| 20260507072419 | 53 | 0.0 | 0.0 | 0.00 | 0.00 | 0.00 | 86 | ||
| 20260507071918 | 52 | 0.0 | 0.0 | 0.00 | 0.00 | 0.00 | 86 | ||
| 20260507071418 | 52 | 0.0 | 0.0 | 0.00 | 0.00 | 0.00 | 86 | ||
| 20260507070918 | 52 | 0.0 | 0.0 | 0.00 | 0.00 | 0.00 | 88 | ||
| 20260507070418 | 52 | 0.0 | 0.0 | 0.00 | 0.00 | 0.00 | 89 | ||
| 20260507065917 | 51 | 0.0 | 0.0 | 0.00 | 0.00 | 0.00 | 89 | ||
| 20260507065417 | 51 | 0.0 | 0.0 | 0.00 | 0.00 | 0.00 | 90 | ||
| 20260507064916 | 51 | 0.0 | 0.0 | 0.00 | 0.00 | 0.00 | 90 | ||
| 20260507064415 | 51 | 0.0 | 0.0 | 0.00 | 0.00 | 0.00 | 91 | ||
| 20260507063915 | 51 | 0.0 | 0.0 | 0.00 | 0.00 | 0.00 | 91 | ||
| 20260507063415 | 51 | 0.0 | 0.0 | 0.00 | 0.00 | 0.00 | 91 | ||
| 20260507062914 | 51 | 0.0 | 0.0 | 0.00 | 0.00 | 0.00 | 91 | ||
| 20260507062416 | 51 | 0.0 | 0.0 | 0.00 | 0.00 | 0.00 | 91 | ||
| 20260507061914 | 51 | 0.0 | 0.0 | 0.00 | 0.00 | 0.00 | 91 | ||
| 20260507061413 | 51 | 0.0 | 0.0 | 0.00 | 0.00 | 0.00 | 91 | ||
| 20260507060412 | 51 | 0.0 | 0.0 | 0.00 | 0.00 | 0.00 | 91 | ||
| 20260507055912 | 51 | 0.0 | 0.0 | 0.00 | 0.00 | 0.00 | 91 | ||
| 20260507055411 | 51 | 0.0 | 0.0 | 0.00 | 0.00 | 0.00 | 91 | ||
| 20260507054911 | 51 | 0.0 | 0.0 | 0.00 | 0.00 | 0.00 | 91 | ||
| 20260507054411 | 50 | 0.0 | 0.0 | 0.00 | 0.00 | 0.00 | 90 | ||
| 20260507053910 | 50 | 0.0 | 0.0 | 0.00 | 0.00 | 0.00 | 91 | ||
| 20260507053409 | 50 | 0.0 | 0.0 | 0.00 | 0.00 | 0.00 | 91 | ||
| 20260507052910 | 50 | 0.0 | 0.0 | 0.00 | 0.00 | 0.00 | 91 | ||
| 20260507051908 | 50 | 0.0 | 0.0 | 0.00 | 0.00 | 0.00 | 91 | ||
| 20260507050908 | 50 | 0.0 | 0.0 | 0.00 | 0.00 | 0.00 | 91 | ||
| 20260507045406 | 50 | 0.0 | 0.0 | 0.00 | 0.00 | 0.00 | 91 | ||
| 20260507044905 | 50 | 0.0 | 0.0 | 0.00 | 0.00 | 0.00 | 91 | ||
| 20260507043905 | 50 | 0.0 | 0.0 | 0.00 | 0.00 | 0.00 | 92 | ||
| 20260507043404 | 50 | 0.0 | 0.0 | 0.00 | 0.00 | 0.00 | 92 | ||
| 20260507042904 | 49 | 0.0 | 0.0 | 0.00 | 0.00 | 0.00 | 91 | ||
| 20260507042403 | 49 | 0.0 | 0.0 | 0.00 | 0.00 | 0.00 | 91 | ||
| 20260507041903 | 49 | 0.0 | 0.0 | 0.00 | 0.00 | 0.00 | 91 | ||
| 20260507041403 | 49 | 0.0 | 0.0 | 0.00 | 0.00 | 0.00 | 90 | ||
| 20260507040903 | 49 | 0.0 | 0.0 | 0.00 | 0.00 | 0.00 | 90 | ||
| 20260507040402 | 49 | 0.0 | 0.0 | 0.00 | 0.00 | 0.00 | 91 | ||
| 20260507035902 | 49 | 0.0 | 0.0 | 0.00 | 0.00 | 0.00 | 90 | ||
| 20260507035401 | 49 | 0.0 | 0.0 | 0.00 | 0.00 | 0.00 | 90 | ||
| 20260507034400 | 49 | 0.0 | 0.0 | 0.00 | 0.00 | 0.00 | 90 | ||
| 20260507033359 | 49 | 0.0 | 0.0 | 0.00 | 0.00 | 0.00 | 91 | ||
| 20260507032358 | 49 | 0.0 | 0.0 | 0.00 | 0.00 | 0.00 | 90 | ||
| 20260507031858 | 49 | 0.0 | 0.0 | 0.00 | 0.00 | 0.00 | 91 | ||
| 20260507031358 | 48 | 0.0 | 0.0 | 0.00 | 0.00 | 0.00 | 91 | ||
| 20260507030857 | 49 | 0.0 | 0.0 | 0.00 | 0.00 | 0.00 | 91 | ||
| 20260507030357 | 48 | 0.0 | 0.0 | 0.00 | 0.00 | 0.00 | 91 | ||
| 20260507025858 | 48 | 0.0 | 0.0 | 0.00 | 0.00 | 0.00 | 91 | ||
| 20260507025357 | 48 | 0.0 | 0.0 | 0.00 | 0.00 | 0.00 | 90 | ||
| 20260507024355 | 49 | 0.0 | 0.0 | 0.00 | 0.00 | 0.00 | 89 | ||
| 20260507023855 | 49 | 0.0 | 0.0 | 0.00 | 0.00 | 0.00 | 89 | ||
| 20260507023354 | 49 | 0.0 | 0.0 | 0.00 | 0.00 | 0.00 | 89 | ||
| 20260507022854 | 49 | 0.0 | 0.0 | 0.00 | 0.00 | 0.00 | 89 | ||
| 20260507022356 | 49 | 0.0 | 0.0 | 0.00 | 0.00 | 0.00 | 89 | ||
| 20260507021857 | 49 | 0.0 | 0.0 | 0.00 | 0.00 | 0.00 | 88 | ||
| 20260507021353 | 49 | 0.0 | 0.0 | 0.00 | 0.00 | 0.00 | 88 | ||
| 20260507020852 | 50 | 0.0 | 0.0 | 0.00 | 0.00 | 0.00 | 87 | ||
| 20260507020352 | 50 | 0.0 | 0.0 | 0.00 | 0.00 | 0.00 | 88 | ||
| 20260507015852 | 50 | 0.0 | 0.0 | 0.00 | 0.00 | 0.00 | 87 | ||
| 20260507015352 | 50 | 0.0 | 0.0 | 0.00 | 0.00 | 0.00 | 88 | ||
| 20260507014851 | 50 | 0.0 | 0.0 | 0.00 | 0.00 | 0.00 | 88 | ||
| 20260507014350 | 50 | 0.0 | 0.0 | 0.00 | 0.00 | 0.00 | 88 | ||
| 20260507013849 | 50 | 0.0 | 0.0 | 0.00 | 0.00 | 0.00 | 88 | ||
| 20260507012849 | 50 | 0.0 | 0.0 | 0.00 | 0.00 | 0.00 | 88 | ||
| 20260507011848 | 50 | 0.0 | 0.0 | 0.00 | 0.00 | 0.00 | 88 | ||
| 20260507011347 | 49 | 0.0 | 0.0 | 0.00 | 0.00 | 0.00 | 89 | ||
| 20260507005846 | 49 | 0.0 | 0.0 | 0.00 | 0.00 | 0.00 | 90 | ||
| 20260507005345 | 49 | 0.0 | 0.0 | 0.00 | 0.00 | 0.00 | 90 | ||
| 20260507004345 | 49 | 0.0 | 0.0 | 0.00 | 0.00 | 0.00 | 88 | ||
| 20260507003844 | 49 | 0.0 | 0.0 | 0.00 | 0.00 | 0.00 | 88 | ||
| 20260507003345 | 49 | 0.0 | 0.0 | 0.00 | 0.00 | 0.00 | 87 | ||
| 20260507002843 | 50 | 0.0 | 0.0 | 0.00 | 0.00 | 0.00 | 87 | ||
| 20260507002343 | 50 | 0.0 | 0.0 | 0.00 | 0.00 | 0.00 | 87 | ||
| 20260507001842 | 49 | 0.0 | 0.0 | 0.00 | 0.00 | 0.00 | 88 | ||
| 20260507001342 | 50 | 0.0 | 0.0 | 0.00 | 0.00 | 0.00 | 88 | ||
| 20260507000841 | 50 | 0.0 | 0.0 | 0.00 | 0.00 | 0.00 | 87 | ||
| 20260507000343 | 50 | 0.0 | 0.0 | 0.00 | 0.00 | 0.00 | 88 | ||
| 20260506235841 | 49 | 0.0 | 0.0 | 0.00 | 0.00 | 0.00 | 87 | ||
| 20260506235340 | 49 | 0.0 | 0.0 | 0.00 | 0.00 | 0.00 | 88 | ||
| 20260506234839 | 49 | 0.0 | 0.0 | 0.00 | 0.00 | 0.00 | 87 | ||
| 20260506233838 | 49 | 0.0 | 0.0 | 0.00 | 0.00 | 0.00 | 88 | ||
| 20260506233338 | 49 | 0.0 | 0.0 | 0.00 | 0.00 | 0.00 | 88 | ||
| 20260506232839 | 49 | 0.0 | 0.0 | 0.00 | 0.00 | 0.00 | 87 | ||
| 20260506232338 | 49 | 0.0 | 0.0 | 0.00 | 0.00 | 0.00 | 88 | ||
| 20260506231337 | 50 | 0.0 | 0.0 | 0.00 | 0.00 | 0.00 | 86 | ||
| 20260506230837 | 50 | 0.0 | 0.0 | 0.00 | 0.00 | 0.00 | 85 | ||
| 20260506230336 | 50 | 0.0 | 0.0 | 0.00 | 0.00 | 0.00 | 86 | ||
| 20260506225836 | 50 | 0.0 | 0.0 | 0.00 | 0.00 | 0.00 | 87 | ||
| 20260506225335 | 50 | 0.0 | 0.0 | 0.00 | 0.00 | 0.00 | 86 | ||
| 20260506224835 | 50 | 0.0 | 0.0 | 0.00 | 0.00 | 0.00 | 86 | ||
| 20260506224335 | 50 | 0.0 | 0.0 | 0.00 | 0.00 | 0.00 | 86 | ||
| 20260506223834 | 50 | 0.0 | 0.0 | 0.00 | 0.00 | 0.00 | 87 | ||
| 20260506223334 | 50 | 0.0 | 0.0 | 0.00 | 0.00 | 0.00 | 87 | ||
| 20260506222832 | 50 | 0.0 | 0.0 | 0.00 | 0.00 | 0.00 | 87 | ||
| 20260506222332 | 50 | 0.0 | 0.0 | 0.00 | 0.00 | 0.00 | 87 | ||
| 20260506221832 | 50 | 0.0 | 0.0 | 0.00 | 0.00 | 0.00 | 86 | ||
| 20260506221332 | 50 | 0.0 | 0.0 | 0.00 | 0.00 | 0.00 | 86 | ||
| 20260506220832 | 50 | 0.0 | 0.0 | 0.00 | 0.00 | 0.00 | 86 | ||
| 20260506220331 | 50 | 0.0 | 0.0 | 0.00 | 0.00 | 0.00 | 86 | ||
| 20260506215330 | 50 | 0.0 | 0.0 | 0.00 | 0.00 | 0.00 | 85 | ||
| 20260506214829 | 50 | 0.0 | 0.0 | 0.00 | 0.00 | 0.00 | 85 | ||
| 20260506214329 | 50 | 0.0 | 0.0 | 0.00 | 0.00 | 0.00 | 85 | ||
| 20260506213829 | 51 | 0.0 | 0.0 | 0.00 | 0.00 | 0.00 | 86 | ||
| 20260506213328 | 51 | 0.0 | 0.0 | 0.00 | 0.00 | 0.00 | 87 | ||
| 20260506212327 | 51 | 0.0 | 0.0 | 0.00 | 0.00 | 0.00 | 88 | ||
| 20260506211326 | 51 | 0.0 | 0.0 | 0.00 | 0.00 | 0.00 | 88 | ||
| 20260506210826 | 51 | 0.0 | 0.0 | 0.00 | 0.00 | 0.00 | 87 | ||
| 20260506210326 | 51 | 0.0 | 0.0 | 0.00 | 0.00 | 0.00 | 88 | ||
| 20260506205825 | 51 | 0.0 | 0.0 | 0.00 | 0.00 | 0.00 | 88 | ||
| 20260506205324 | 51 | 0.0 | 0.0 | 0.00 | 0.00 | 0.00 | 88 | ||
| 20260506204323 | 51 | 0.0 | 0.0 | 0.00 | 0.00 | 0.00 | 88 | ||
| 20260506203823 | 51 | 0.0 | 0.0 | 0.00 | 0.00 | 0.00 | 88 | ||
| 20260506203323 | 51 | 0.0 | 0.0 | 0.00 | 0.00 | 0.00 | 88 | ||
| 20260506202822 | 51 | 0.0 | 0.0 | 0.00 | 0.00 | 0.00 | 88 | ||
| 20260506202322 | 51 | 0.0 | 0.0 | 0.00 | 0.00 | 0.00 | 88 | ||
| 20260506201821 | 51 | 0.0 | 0.0 | 0.00 | 0.00 | 0.00 | 87 | ||
| 20260506200821 | 51 | 0.0 | 0.0 | 0.00 | 0.00 | 0.00 | 87 | ||
| 20260506200320 | 51 | 0.0 | 0.0 | 0.00 | 0.00 | 0.00 | 87 | ||
| 20260506195820 | 51 | 0.0 | 0.0 | 0.00 | 0.00 | 0.00 | 87 | ||
| 20260506195320 | 51 | 0.0 | 0.0 | 0.00 | 0.00 | 0.00 | 87 | ||
| 20260506194319 | 51 | 0.0 | 0.0 | 0.00 | 0.00 | 0.00 | 87 | ||
| 20260506193818 | 51 | 0.0 | 0.0 | 0.00 | 0.00 | 0.00 | 86 | ||
| 20260506193317 | 51 | 0.0 | 0.0 | 0.00 | 0.00 | 0.00 | 86 | ||
| 20260506192818 | 51 | 0.0 | 0.0 | 0.00 | 0.00 | 0.00 | 86 | ||
| 20260506192316 | 51 | 0.0 | 0.0 | 0.00 | 0.00 | 0.00 | 85 | ||
| 20260506191817 | 51 | 0.0 | 0.0 | 0.00 | 0.00 | 0.00 | 85 | ||
| 20260506191316 | 51 | 0.0 | 0.0 | 0.00 | 0.00 | 0.00 | 85 | ||
| 20260506190816 | 51 | 0.0 | 0.0 | 0.00 | 0.00 | 0.00 | 84 | ||
| 20260506190315 | 51 | 0.0 | 0.0 | 0.00 | 0.00 | 0.00 | 85 | ||
| 20260506184814 | 52 | 0.0 | 0.0 | 0.00 | 0.00 | 0.00 | 84 | ||
| 20260506184314 | 52 | 0.0 | 0.0 | 0.00 | 0.00 | 0.00 | 83 | ||
| 20260506183813 | 52 | 0.0 | 0.0 | 0.00 | 0.00 | 0.00 | 82 | ||
| 20260506182812 | 52 | 0.0 | 0.0 | 0.00 | 0.00 | 0.00 | 82 | ||
| 20260506182312 | 53 | 0.0 | 0.0 | 0.00 | 0.00 | 0.00 | 81 | ||
| 20260506181811 | 52 | 0.0 | 0.0 | 0.00 | 0.00 | 0.00 | 81 | ||
| 20260506181311 | 53 | 0.0 | 0.0 | 0.00 | 0.00 | 0.00 | 80 | ||
| 20260506180810 | 53 | 0.0 | 0.0 | 0.00 | 0.00 | 0.00 | 78 | ||
| 20260506180311 | 53 | 0.0 | 0.0 | 0.00 | 0.00 | 0.00 | 78 | ||
| 20260506175809 | 54 | 0.0 | 0.0 | 0.00 | 0.00 | 0.00 | 77 | ||
| 20260506175309 | 54 | 0.0 | 0.0 | 0.00 | 0.00 | 0.00 | 78 | ||
| 20260506174809 | 54 | 0.0 | 0.0 | 0.00 | 0.00 | 0.00 | 79 | ||
| 20260506174308 | 54 | 0.0 | 0.0 | 0.00 | 0.00 | 0.00 | 78 | ||
| 20260506173808 | 54 | 0.0 | 0.0 | 0.00 | 0.00 | 0.00 | 79 | ||
| 20260506173308 | 54 | 0.0 | 0.0 | 0.00 | 0.00 | 0.00 | 78 | ||
| 20260506172807 | 54 | 0.0 | 0.0 | 0.00 | 0.00 | 0.00 | 78 | ||
| 20260506172308 | 54 | 0.0 | 0.0 | 0.00 | 0.00 | 0.00 | 78 | ||
| 20260506171807 | 55 | 0.0 | 0.0 | 0.00 | 0.00 | 0.00 | 77 | ||
| 20260506171306 | 55 | 0.0 | 0.0 | 0.00 | 0.00 | 0.00 | 75 | ||
| 20260506170805 | 55 | 0.0 | 0.0 | 0.00 | 0.00 | 0.00 | 75 | ||
| 20260506170306 | 55 | 0.0 | 0.0 | 0.00 | 0.00 | 0.00 | 77 | ||
| 20260506165804 | 55 | 0.0 | 0.0 | 0.00 | 0.00 | 0.00 | 77 | ||
| 20260506165305 | 55 | 0.0 | 0.0 | 0.00 | 0.00 | 0.00 | 78 | ||
| 20260506164804 | 55 | 0.0 | 0.0 | 0.00 | 0.00 | 0.00 | 75 | ||
| 20260506164303 | 55 | 0.0 | 0.0 | 0.00 | 0.00 | 0.00 | 74 | ||
| 20260506163804 | 55 | 0.0 | 0.0 | 0.00 | 0.00 | 0.00 | 74 | ||
| 20260506163303 | 55 | 0.0 | 0.0 | 0.00 | 0.00 | 0.00 | 74 | ||
| 20260506162802 | 55 | 0.0 | 0.0 | 0.00 | 0.00 | 0.00 | 75 | ||
| 20260506162306 | 55 | 0.0 | 0.0 | 0.00 | 0.00 | 0.00 | 74 | ||
| 20260506161801 | 54 | 0.0 | 0.0 | 0.00 | 0.00 | 0.00 | 76 | ||
| 20260506161301 | 55 | 0.0 | 0.0 | 0.00 | 0.00 | 0.00 | 77 | ||
| 20260506160800 | 54 | 0.0 | 0.0 | 0.00 | 0.00 | 0.00 | 78 | ||
| 20260506160300 | 54 | 0.0 | 0.0 | 0.00 | 0.00 | 0.00 | 77 | ||
| 20260506155800 | 54 | 0.0 | 0.0 | 0.00 | 0.00 | 0.00 | 78 | ||
| 20260506155300 | 54 | 0.0 | 0.0 | 0.00 | 0.00 | 0.00 | 76 | ||
| 20260506154258 | 54 | 0.0 | 0.0 | 0.00 | 0.00 | 0.00 | 76 |